Location: Gradaro
(45.0833°N, 10.8833°E)
Time: 00:27:41
(UTC+00:00)

Cosmos 2263 Rocket - Pass Details

Date: 27 April 2021
Orbit: 824 x 848 km, 71.0° (Epoch: 15 May)

Event Time Altitude Azimuth Distance (km) Brightness Sun altitude
Exits shadow 19:05:01 - 145° (SE) 2,641 4.2 -8.4°
Reaches altitude 10° 19:05:53 10° 138° (SE) 2,418 4.0 -8.5°
Maximum altitude 19:09:22 17° 99° (E) 1,964 3.6 -9.1°
Drops below altitude 10° 19:12:51 10° 60° (ENE) 2,432 4.3 -9.6°
Sets 19:16:05 0° 41° (NE) 3,373 5.2 -10.1°
